This is the latest recevied weather packets stored in our database for station/object IK2ILW-6. If no packets are shown the sender has not sent any weather packets the latest 10 day(s).
| Time | Temp. | Humidity | Pressure | Rain* | Wind** | Luminosity | Snow |
|---|---|---|---|---|---|---|---|
| 1778140588 | 3.33° C | 93% | 1013 hPa | 2.03 mm | - | 172 W/m² | - |
| 1778140293 | 3.33° C | 95% | 1013.1 hPa | 2.03 mm | - | 199 W/m² | - |
| 1778139996 | 3.33° C | 94% | 1013 hPa | 3.05 mm | - | 214 W/m² | - |
| 1778139699 | 2.78° C | 93% | 1013 hPa | 3.05 mm | - | 156 W/m² | - |
| 1778139383 | 3.33° C | 94% | 1013 hPa | 4.06 mm | - | 141 W/m² | - |
| 1778139088 | 3.33° C | 94% | 1012.9 hPa | 3.05 mm | - | 132 W/m² | - |
| 1778138792 | 3.33° C | 94% | 1013 hPa | 3.05 mm | - | 135 W/m² | - |
| 1778138496 | 3.33° C | 94% | 1012.9 hPa | 3.05 mm | - | 128 W/m² | - |
| 1778138185 | 3.33° C | 92% | 1012.8 hPa | 4.06 mm | - | 239 W/m² | - |
| 1778137890 | 3.33° C | 92% | 1012.8 hPa | 4.06 mm | - | 76 W/m² | - |
| 1778137593 | 3.33° C | 92% | 1012.7 hPa | 3.05 mm | - | 97 W/m² | - |
| 1778137297 | 3.89° C | 92% | 1012.7 hPa | 3.05 mm | - | 519 W/m² | - |
| 1778136983 | 3.89° C | 91% | 1012.6 hPa | 4.06 mm | - | 332 W/m² | - |
| 1778136688 | 3.89° C | 94% | 1012.6 hPa | 4.06 mm | - | 304 W/m² | - |
| 1778136393 | 3.33° C | 93% | 1012.5 hPa | 3.05 mm | - | 278 W/m² | - |
| 1778136098 | 3.33° C | 93% | 1012.5 hPa | 4.06 mm | - | 570 W/m² | - |
| 1778135802 | 3.33° C | 92% | 1012.5 hPa | 3.05 mm | - | 373 W/m² | - |
| 1778135486 | 3.33° C | 92% | 1012.6 hPa | 3.05 mm | - | 197 W/m² | - |
| 1778135193 | 3.33° C | 91% | 1012.5 hPa | 3.05 mm | - | 271 W/m² | - |
| 1778134897 | 3.33° C | 93% | 1012.5 hPa | 3.05 mm | - | 415 W/m² | - |
| 1778134602 | 2.78° C | 90% | 1012.4 hPa | 2.03 mm | - | 436 W/m² | - |
| 1778134284 | 2.78° C | 90% | 1012.4 hPa | 2.03 mm | - | 134 W/m² | - |
| 1778133989 | 2.78° C | 90% | 1012.3 hPa | 2.03 mm | - | 134 W/m² | - |
| 1778133693 | 2.78° C | 89% | 1012.3 hPa | 2.03 mm | - | 135 W/m² | - |
| 1778133398 | 3.33° C | 89% | 1012.3 hPa | 1.02 mm | - | 141 W/m² | - |
* Rain latest hour (hover to see other rain measurements)
** Current wind speed in m/s (hover to see current wind gust speed)